| time (UTC) | temp F | wind direction | speed MPH | gust MPH | rain 1hr in | rain 24hr in | rain mn in | humidity % | barometer mb |
| 20260503221518 | 78 | 94 | 3.0 | 15.0 | 0.00 | 0.00 | 0.00 | 30 | 1011.9 |
| 20260503220014 | 77 | 80 | 8.0 | 13.0 | 0.00 | 0.00 | 0.00 | 28 | 1012.1 |
| 20260503214513 | 77 | 71 | 5.0 | 11.0 | 0.00 | 0.00 | 0.00 | 34 | 1012.3 |
| 20260503213010 | 77 | 84 | 3.0 | 10.0 | 0.00 | 0.00 | 0.00 | 30 | 1012.5 |
| 20260503211506 | 77 | 126 | 3.0 | 9.0 | 0.00 | 0.00 | 0.00 | 35 | 1012.7 |
| 20260503204557 | 74 | 57 | 4.0 | 10.0 | 0.00 | 0.00 | 0.00 | 39 | 1013.1 |
| 20260503203107 | 73 | 148 | 3.0 | 7.0 | 0.00 | 0.00 | 0.00 | 45 | 1013.3 |
| 20260503201554 | 72 | 115 | 0.0 | 5.0 | 0.00 | 0.00 | 0.00 | 46 | 1013.5 |
| 20260503200050 | 71 | 130 | 2.0 | 7.0 | 0.00 | 0.00 | 0.00 | 46 | 1013.7 |
| 20260503194517 | 71 | 121 | 2.0 | 5.0 | 0.00 | 0.00 | 0.00 | 45 | 1014.1 |
| 20260503193017 | 70 | 122 | 2.0 | 5.0 | 0.00 | 0.00 | 0.00 | 45 | 1014.2 |
| 20260503191507 | 69 | 65 | 1.0 | 4.0 | 0.00 | 0.00 | 0.00 | 47 | 1014.5 |
| 20260503190008 | 68 | 140 | 3.0 | 6.0 | 0.00 | 0.00 | 0.00 | 47 | 1014.6 |
| 20260503184504 | 69 | 88 | 0.0 | 3.0 | 0.00 | 0.00 | 0.00 | 48 | 1014.8 |
| 20260503183101 | 65 | 57 | 4.0 | 5.0 | 0.00 | 0.00 | 0.00 | 51 | 1015.0 |
| 20260503181604 | 65 | 129 | 0.0 | 2.0 | 0.00 | 0.00 | 0.00 | 53 | 1015.1 |
| 20260503180054 | 64 | 129 | 1.0 | 6.0 | 0.00 | 0.00 | 0.00 | 53 | 1015.3 |
| 20260503174554 | 63 | 61 | 1.0 | 6.0 | 0.00 | 0.00 | 0.00 | 55 | 1015.4 |
| 20260503173058 | 63 | 76 | 4.0 | 6.0 | 0.00 | 0.00 | 0.00 | 53 | 1015.5 |
| 20260503171546 | 62 | 227 | 0.0 | 3.0 | 0.00 | 0.00 | 0.00 | 53 | 1015.5 |
| 20260503054541 | 57 | 296 | 3.0 | 7.0 | 0.00 | 0.00 | 0.00 | 53 | 1015.0 |
| 20260503053042 | 57 | 296 | 2.0 | 5.0 | 0.00 | 0.00 | 0.00 | 54 | 1015.0 |
| 20260503051538 | 58 | 319 | 2.0 | 6.0 | 0.00 | 0.00 | 0.00 | 53 | 1015.0 |
| 20260503050037 | 58 | 301 | 0.0 | 3.0 | 0.00 | 0.00 | 0.00 | 53 | 1015.0 |
| 20260503044536 | 61 | 313 | 1.0 | 3.0 | 0.00 | 0.00 | 0.00 | 48 | 1014.9 |
| 20260503043034 | 64 | 184 | 2.0 | 8.0 | 0.00 | 0.00 | 0.00 | 42 | 1014.7 |
| 20260503041534 | 64 | 96 | 0.0 | 3.0 | 0.00 | 0.00 | 0.00 | 41 | 1014.4 |
| 20260503040037 | 66 | 305 | 1.0 | 5.0 | 0.00 | 0.00 | 0.00 | 38 | 1014.1 |
| 20260503034533 | 64 | 269 | 1.0 | 3.0 | 0.00 | 0.00 | 0.00 | 41 | 1014.0 |
| 20260503033004 | 63 | 297 | 3.0 | 5.0 | 0.00 | 0.00 | 0.00 | 44 | 1013.8 |
| 20260503031503 | 63 | 290 | 3.0 | 5.0 | 0.00 | 0.00 | 0.00 | 46 | 1013.6 |
| 20260503030059 | 66 | 286 | 3.0 | 5.0 | 0.00 | 0.00 | 0.00 | 44 | 1013.5 |
| 20260503024604 | 71 | 259 | 2.0 | 7.0 | 0.00 | 0.00 | 0.00 | 31 | 1013.3 |
| 20260503023105 | 71 | 244 | 1.0 | 5.0 | 0.00 | 0.00 | 0.00 | 31 | 1013.3 |
| 20260503021606 | 71 | 173 | 4.0 | 11.0 | 0.00 | 0.00 | 0.00 | 32 | 1013.4 |
| 20260503020027 | 71 | 128 | 8.0 | 14.0 | 0.00 | 0.00 | 0.00 | 34 | 1013.4 |
| 20260503014526 | 74 | 171 | 6.0 | 12.0 | 0.00 | 0.00 | 0.00 | 34 | 1013.4 |
| 20260503013106 | 75 | 146 | 1.0 | 2.0 | 0.00 | 0.00 | 0.00 | 27 | 1013.4 |
| 20260503011604 | 75 | 149 | 1.0 | 4.0 | 0.00 | 0.00 | 0.00 | 28 | 1013.4 |
| 20260503010059 | 76 | 126 | 1.0 | 4.0 | 0.00 | 0.00 | 0.00 | 23 | 1013.4 |
| 20260503004553 | 78 | 126 | 0.0 | 2.0 | 0.00 | 0.00 | 0.00 | 22 | 1013.4 |
| 20260503003100 | 77 | 146 | 1.0 | 7.0 | 0.00 | 0.00 | 0.00 | 26 | 1013.4 |
| 20260503001552 | 77 | 128 | 3.0 | 7.0 | 0.00 | 0.00 | 0.00 | 22 | 1013.4 |
| 20260503000100 | 78 | 96 | 4.0 | 9.0 | 0.00 | 0.00 | 0.00 | 21 | 1013.4 |
| 20260502234547 | 77 | 93 | 2.0 | 7.0 | 0.00 | 0.00 | 0.00 | 23 | 1013.5 |
| 20260502233050 | 78 | 123 | 2.0 | 6.0 | 0.00 | 0.00 | 0.00 | 20 | 1013.6 |
| 20260502231546 | 79 | 40 | 2.0 | 5.0 | 0.00 | 0.00 | 0.00 | 19 | 1013.6 |
| 20260502230040 | 79 | 325 | 1.0 | 5.0 | 0.00 | 0.00 | 0.00 | 19 | 1013.8 |
| 20260502224534 | 76 | 90 | 2.0 | 9.0 | 0.00 | 0.00 | 0.00 | 23 | 1013.9 |
| 20260502223033 | 76 | 154 | 2.0 | 9.0 | 0.00 | 0.00 | 0.00 | 29 | 1014.0 |